STARLINK-34462, 64493

Orbit data source: Space-Track

STARLINK-34462, 64493 is a payload satellite owned by SpaceX/Seattle (US) in LEO that was launched on Mon, 23 Jun 2025 UTC via an FALCON 9 launch vehicle from the Air Force Eastern Test Range (AFETR). Payload-class satellites include a variety of spacecraft equipped with specific instruments for various scientific and technological missions. These include communications satellites like Starlink; space stations such as the ISS; scientific satellites like the Hubble; Earth observation satellites from companies like Planet Labs, Umbra, and HawkEye 360; GPS; miniature CubeSats for education and research; and military/defense satellites.

Loading next visibility...
Identifier
64493, 2025-133X
Orbit
LEO
Country
Flag of USUS
Related business
Manufacturer
SpaceX/Seattle
Mission
Operational Commercial Communications
Bus & Motor
STARLINK V2MO, Unknown motor
Mass
575 kg wet, ~530 kg dry
Launch date (UTC)
2025-06-23 (1 year ago)
Launch vehicle
FALCON 9
Launch site
Air Force Eastern Test Range (AFETR)
Object type
Payload
Rocket body
Debris
Shape & HBR
Box + 2 Pan, 17.7 m
Radar Cross Section
36.964 m², Large (>1 m²)

Expand to show TLE details & history
Last TLE update: 1 day ago

TLE from 1 day ago
0 STARLINK-34462
1 64493U 25133X   26170.84440240  .00030717  00000-0  91624-3 0  9995
2 64493  53.1608 359.1105 0001179  88.9374 271.1764 15.34410491 56878
Epoch: 2026-06-19T20:15Z
TLE epoch observation values (Epoch: 2026-06-19T20:15:56.367Z)
Latitude
0.00001°
Longitude
147.0581°
Altitude
463.557 km
Speed
7.636 km/s
True Right ascension
23h 56m 26s
True Declination
0° 00' 00"
Sunlit
Object was in daylight at epoch
Visualization orbit readout
Latitude
Unknown
Longitude
Unknown
Altitude
Unknown
Speed
Unknown
Apparent Right ascension
Unknown
Apparent Declination
Unknown
Sunlit
N/A
Visualization observer readout
Local Sidereal Time
10:19:01
Azimuth
Unknown
Elevation
Unknown
Doppler factor
Unknown
Orbital elements
Apogee altitude
463.735 km
Perigee altitude
462.122 km
Semi-major axis
6,841.066 km
Eccentricity
0.00012
Inclination
53.1608°
RAAN
359.1105°
Arg. of periapsis
88.9374°
True anomaly
271.16289°
Mean anomaly
271.1764°
Eccentric anomaly
271.16965°
Mean motion
3.83581 °/min
Orbital period
93.85 mins
BSTAR
0.00091624
Loading maneuver chart data...
Computing Atmospheric mass density...
Loading historical data...
Loading historical data...
Loading historical data...
Loading historical data...
Loading historical data...
Loading historical data...
Loading historical data...

Documentation

Showing up to 5 results
|